Regional Weather Roundup
Issued by NWS

Home | Current Version | Previous Version | Graphics & Text | Print | Product List | Glossary Off
Versions: 1 2 3 4 5 6 7 8 9 10 11 12 13 14 15 16 17 18 19 20 21 22 23 24 25 26 27 28 29 30 31 32 33 34 35 36 37 38 39 40 41 42 43 44 45 46 47 48 49 50

000
ASUS43 KFSD 040502
RWRSD

WEATHER ROUNDUP FOR SOUTH DAKOTA
NATIONAL WEATHER SERVICE SIOUX FALLS SD
1200 AM CDT FRI SEP 04 2015

NOTE: "FAIR" INDICATES FEW OR NO CLOUDS BELOW 12,000 FEET WITH NO
SIGNIFICANT WEATHER AND/OR OBSTRUCTIONS TO VISIBILITY.


SDZ001>005-009-010-012>017-040600-
NORTHWEST AND NORTH CENTRAL SOUTH DAKOTA

CITY           SKY/WX    TMP DP  RH WIND       PRES   REMARKS
BUFFALO          N/A     67  52  58 NE10      29.65F
MOBRIDGE       MOCLDY    75  72  90 E8        29.70F
$$

SDZ012>016-024>037-041>051-057-063-072>074-040600-
SOUTHWEST AND SOUTH CENTRAL SOUTH DAKOTA

CITY           SKY/WX    TMP DP  RH WIND       PRES   REMARKS
RAPID CTY ARPT CLOUDY    73  52  47 SE9       29.78S
PIERRE         CLOUDY    77  70  79 SE9       29.68F
CUSTER         CLOUDY    71  44  37 S5        29.94F
PHILIP         LGT RAIN  83  52  34 W12G18    29.70F
PINE RIDGE     LGT RAIN  75  50  41 W5        29.81F
WINNER         FAIR      80  65  59 SE8       29.72F
$$

SDZ004>011-016>023-039-040-040600-
NORTHEAST SOUTH DAKOTA

CITY           SKY/WX    TMP DP  RH WIND       PRES   REMARKS
ABERDEEN       PTCLDY    74  70  87 SE7       29.76S
WATERTOWN      PTCLDY    76  71  85 SE8       29.81F
BROOKINGS      PTCLDY    75  72  88 SE12      29.83F
$$

SDZ017-020-022-023-036>040-048>070-040600-
SOUTHEAST SOUTH DAKOTA

CITY           SKY/WX    TMP DP  RH WIND       PRES   REMARKS
SIOUX FALLS    MOCLDY    77  72  84 SE7       29.80F
HURON          MOCLDY    76  72  87 SE10      29.74S
CHAMBERLAIN    CLOUDY    74  71  88 SE10      29.72F
MITCHELL       CLOUDY    78  73  84 SE10      29.74F
YANKTON        MOCLDY    77  72  83 SE9       29.76S
$$

ABBREVIATIONS USED IN REMARKS
   TC - TEMPERATURE IN CELSIUS
  WCI - WIND CHILL INDEX
   HX - HEAT INDEX
  VSB - VISIBILITY



USA.gov is the U.S. government's official web portal to all federal, state and local government web resources and services.